Home   Weather   Galway   Past weeks

Flag for Ireland Past Weather in Galway, Ireland — Yesterday and Last 2 Weeks

Now
46 °F

Fog.


Feels Like: 45 °F
Forecast: 47 / 51 °F
Wind: 3 mph from Southeast

Location: Shannon Airport

Current Time: Jan 17, 2017 at 7:07:49 am

Latest Report: Jan 17, 2017 at 6:30 am


Visibility: 2 mi

Pressure: 30.48 "Hg

Humidity: 100%

Dew Point: 46 °F

Location of GalwayLocation

Past Weather in Galway — Graph

°F

Galway Temperature Yesterday

Maximum temperature yesterday: 52 °F (at 1:00 pm)
Minimum temperature yesterday: 46 °F (at 12:00 am)
Average temperature yesterday: 49 °F

High & Low Weather Summary for the Past Weeks

 TemperatureHumidityPressure
High54 °F (Jan 6, 11:30 am)100% (Jan 2, 7:00 pm)30.60 "Hg (Jan 2, 7:00 pm)
Low27 °F (Jan 3, 3:30 am)61% (Jan 12, 11:30 pm)29.68 "Hg (Jan 12, 2:00 pm)
Average44 °F90%30.28 "Hg
* Reported Jan 2 6:00 am — Jan 17 6:00 am, Galway, Weather by CustomWeather, © 2017

Note: Actual official high and low records may vary slightly from our data, if they occured in-between our weather recording intervals... More about our weather records

Advertising

Galway Weather History for the Previous 24 Hours

Scroll right to see more
 ConditionsComfort  
Time TempWeatherWind HumidityBarometerVisibility
6:00 am
Tue, Jan 17
46 °FFog.2 mph100%30.48 "Hg2 mi
5:30 am46 °FFog.5 mph100%30.48 "Hg1 mi
5:00 am46 °FFog.3 mph100%30.48 "Hg1 mi
4:30 am45 °FDrizzle. Fog.3 mph100%30.48 "Hg1 mi
4:00 am45 °FFog.2 mph100%30.48 "Hg1 mi
3:30 am45 °FFog.3 mph100%30.48 "Hg1 mi
3:00 am45 °FFog.2 mph100%30.48 "Hg1 mi
2:30 am45 °FFog.5 mph100%30.48 "Hg1 mi
2:00 am46 °FFog.6 mph93%30.48 "Hg0 mi
1:30 am46 °FFog.2 mph100%30.48 "Hg1 mi
1:00 am48 °FFog.3 mph100%30.48 "Hg1 mi
12:30 am48 °FDrizzle. Fog.5 mph94%30.48 "Hg1 mi
12:00 am48 °FFog.2 mph94%30.48 "Hg1 mi
11:30 pm
Mon, Jan 16
48 °FDrizzle. Fog.2 mph100%30.48 "Hg1 mi
11:00 pm48 °FPassing clouds.2 mph100%30.48 "Hg2 mi
10:30 pm48 °FPartly cloudy.5 mph100%30.45 "Hg4 mi
10:00 pm48 °FPartly cloudy.5 mph100%30.45 "Hg4 mi
9:30 pm48 °FPartly cloudy.5 mph100%30.45 "Hg4 mi
9:00 pm48 °FPartly cloudy.3 mph100%30.45 "HgN/A
8:30 pm48 °FPassing clouds.6 mph100%30.45 "HgN/A
8:00 pm50 °FPassing clouds.6 mph94%30.42 "Hg4 mi
7:30 pm48 °FPartly cloudy.6 mph100%30.45 "Hg5 mi
7:00 pm50 °FPartly cloudy.3 mph94%30.45 "HgN/A
6:30 pm50 °FPartly cloudy.5 mph94%30.45 "HgN/A
6:00 pm50 °FPartly cloudy.6 mph94%30.45 "HgN/A
5:30 pm50 °FPartly cloudy.7 mph94%30.42 "HgN/A
5:00 pm50 °FPartly cloudy.6 mph100%30.42 "HgN/A
4:30 pm50 °FBroken clouds.6 mph94%30.42 "HgN/A
4:00 pm52 °FPartly sunny.5 mph94%30.42 "HgN/A
3:30 pm52 °FPartly sunny.6 mph94%30.42 "HgN/A
3:00 pm52 °FBroken clouds.8 mph94%30.42 "HgN/A
2:30 pm52 °FDrizzle. Broken clouds.7 mph94%30.42 "Hg5 mi
2:00 pm52 °FDrizzle. Partly sunny.6 mph94%30.42 "Hg3 mi
1:30 pm50 °FDrizzle. Partly sunny.8 mph100%30.42 "Hg4 mi
1:00 pm52 °FPartly sunny.8 mph94%30.42 "Hg4 mi
12:30 pm50 °FDrizzle. Broken clouds.9 mph100%30.45 "Hg4 mi
12:00 pm50 °FDrizzle. Partly sunny.7 mph94%30.45 "Hg4 mi
11:30 am48 °FDrizzle. Broken clouds.7 mph100%30.45 "Hg3 mi
11:00 am50 °FDrizzle. Broken clouds.7 mph94%30.45 "Hg4 mi
10:30 am48 °FDrizzle. Broken clouds.8 mph100%30.45 "Hg2 mi
10:00 am48 °FDrizzle. Broken clouds.7 mph100%30.45 "Hg3 mi
9:30 am48 °FDrizzle. Partly sunny.6 mph100%30.45 "Hg1 mi
9:00 am48 °FDrizzle. Partly sunny.5 mph94%30.45 "Hg3 mi
8:30 am48 °FPassing clouds.5 mph94%30.45 "Hg4 mi
8:00 am48 °FPassing clouds.8 mph94%30.42 "Hg4 mi
7:30 am48 °FPassing clouds.6 mph94%30.42 "HgN/A
7:00 am48 °FPassing clouds.7 mph94%30.42 "HgN/A
Weather by CustomWeather, © 2017

See weather overviewHow to use our weather pages